CW8306 Weather Reports


Display with metric or nautical units.
time (UTC)temp
F
wind
direction
speed
MPH
gust
MPH
rain 1hr
in
rain 24hr
in
rain mn
in
humidity
%
barometer
mb
20260904040123 65 214 0.0 0.0 0.00 0.07 0.07 87 1012.7
20260904035619 66 219 0.0 0.0 0.00 0.07 0.07 87 1012.4
20260904035119 65 215 0.0 0.0 0.00 0.07 0.07 87 1012.6
20260904034613 66 217 0.0 0.0 0.00 0.07 0.07 86 1012.5
20260904034108 66 217 0.0 0.0 0.00 0.07 0.07 86 1012.5
20260904033604 66 217 0.0 0.0 0.00 0.07 0.07 86 1012.5
20260904033102 66 217 0.0 0.0 0.00 0.07 0.07 86 1012.2
20260904032556 66 215 0.0 0.0 0.00 0.07 0.07 85 1012.2
20260904032055 66 215 0.0 0.0 0.00 0.07 0.07 85 1012.4
20260904031555 66 219 0.0 0.0 0.00 0.07 0.07 85 1012.4
20260904031051 66 214 0.0 0.0 0.00 0.07 0.07 84 1012.1
20260904030547 67 214 0.0 0.0 0.00 0.07 0.07 84 1012.2
20260904030042 67 212 0.0 0.0 0.00 0.07 0.07 83 1012.2
20260904025537 67 212 0.0 0.0 0.00 0.07 0.07 83 1012.4
20260904025038 67 212 0.0 0.0 0.00 0.07 0.07 82 1012.3
20260904024533 68 215 0.0 0.0 0.00 0.07 0.07 81 1011.8
20260904024029 68 208 0.0 2.0 0.00 0.07 0.07 81 1012.0
20260904023525 68 201 1.0 1.0 0.00 0.07 0.07 81 1011.8
20260904023020 68 229 0.0 2.0 0.00 0.07 0.07 80 1011.8
20260904022515 68 90 0.0 0.0 0.00 0.07 0.07 81 1011.3
20260904022012 68 218 0.0 2.0 0.00 0.07 0.07 81 1011.7
20260904021507 68 215 0.0 2.0 0.00 0.07 0.07 80 1011.3
20260904021002 68 68 2.0 2.0 0.00 0.07 0.07 80 1010.8
20260904020457 68 163 3.0 3.0 0.00 0.07 0.07 80 1010.7
20260904015956 68 203 0.0 0.0 0.00 0.07 0.07 81 1010.8
20260904015452 68 188 0.0 2.0 0.00 0.07 0.07 80 1010.7
20260904014950 68 180 1.0 2.0 0.00 0.07 0.07 80 1011.0
20260904014445 68 200 1.0 2.0 0.00 0.07 0.07 80 1011.0
20260904013941 69 112 3.0 6.0 0.00 0.07 0.07 80 1011.1
20260904013437 68 24 0.0 2.0 0.00 0.07 0.07 80 1011.1
20260904012933 68 198 0.0 1.0 0.00 0.07 0.07 80 1011.2
20260904012432 68 20 1.0 2.0 0.00 0.07 0.07 81 1011.3
20260904011927 68 204 0.0 1.0 0.00 0.07 0.07 81 1011.6
20260904011416 68 213 0.0 1.0 0.00 0.07 0.07 82 1011.3
20260904010911 68 151 0.0 1.0 0.00 0.07 0.07 81 1011.8
20260904010408 68 205 0.0 1.0 0.00 0.07 0.07 81 1011.3
20260904005902 69 207 0.0 0.0 0.00 0.07 0.07 82 1011.6
20260904005358 68 216 0.0 0.0 0.00 0.07 0.07 82 1011.7
20260904004853 68 212 0.0 0.0 0.00 0.07 0.07 83 1012.1
20260904004350 68 194 0.0 2.0 0.00 0.07 0.07 84 1012.2
20260904003849 68 213 0.0 0.0 0.00 0.07 0.07 84 1012.2
20260904003345 68 213 0.0 0.0 0.00 0.07 0.07 84 1012.1
20260904002840 68 213 0.0 0.0 0.00 0.07 0.07 83 1011.9
20260904002337 68 212 0.0 0.0 0.00 0.07 0.07 82 1011.4
20260904001835 68 220 0.0 0.0 0.00 0.07 0.07 82 1011.3
20260904001331 69 213 0.0 0.0 0.00 0.07 0.07 82 1011.3
20260904000826 68 210 0.0 1.0 0.00 0.07 0.07 82 1011.1
20260904000325 69 214 0.0 1.0 0.00 0.07 0.07 82 1010.9
20260903235820 69 220 0.0 0.0 0.00 0.07 0.07 81 1010.3
20260903235316 69 65 3.0 5.0 0.00 0.07 0.07 82 1010.2
20260903234815 69 225 0.0 3.0 0.00 0.07 0.07 82 1009.8
20260903234312 69 283 3.0 3.0 0.00 0.07 0.07 82 1009.9
20260903233808 69 328 1.0 5.0 0.00 0.07 0.07 82 1009.9
20260903233304 69 190 1.0 3.0 0.00 0.07 0.07 83 1009.9
20260903232803 68 152 3.0 3.0 0.00 0.07 0.07 83 1010.3
20260903232259 68 208 0.0 1.0 0.00 0.07 0.07 83 1010.3
20260903231757 68 141 0.0 2.0 0.00 0.07 0.07 83 1010.6
20260903231253 68 211 0.0 0.0 0.00 0.07 0.07 83 1010.6
20260903230748 68 181 1.0 1.0 0.00 0.07 0.07 83 1010.0
20260903230248 69 89 2.0 3.0 0.00 0.07 0.07 83 1009.0
20260903225744 69 131 2.0 6.0 0.00 0.07 0.07 83 1008.6
20260903225241 69 194 1.0 8.0 0.00 0.07 0.07 83 1008.4
20260903224737 69 166 1.0 5.0 0.00 0.07 0.07 84 1008.7
20260903224233 69 102 2.0 5.0 0.00 0.07 0.07 83 1008.5
20260903223728 68 330 1.0 10.0 0.00 0.07 0.07 84 1008.6
20260903223226 68 173 0.0 2.0 0.00 0.07 0.07 85 1008.4
20260903222721 68 9 3.0 6.0 0.00 0.07 0.07 85 1008.5
20260903222220 68 331 2.0 5.0 0.00 0.07 0.07 85 1008.2
20260903221715 68 128 5.0 10.0 0.00 0.07 0.07 85 1008.4
20260903221214 68 19 0.0 3.0 0.00 0.07 0.07 85 1008.3
20260903220712 68 181 1.0 3.0 0.00 0.07 0.07 85 1008.4
20260903220207 68 216 2.0 5.0 0.00 0.07 0.07 86 1008.6
20260903215701 68 141 2.0 5.0 0.00 0.07 0.07 87 1008.5
20260903215156 68 200 1.0 3.0 0.00 0.07 0.07 87 1008.7
20260903214654 68 206 2.0 3.0 0.00 0.07 0.07 87 1008.7
20260903214150 68 83 3.0 5.0 0.00 0.07 0.07 88 1008.9
20260903213645 68 150 1.0 1.0 0.00 0.07 0.07 88 1008.9
20260903213141 68 161 2.0 6.0 0.00 0.07 0.07 88 1009.2
20260903212636 68 53 0.0 5.0 0.00 0.07 0.07 88 1009.1
20260903212132 68 251 1.0 3.0 0.07 0.07 0.07 88 1009.3
20260903211631 68 150 3.0 5.0 0.07 0.07 0.07 88 1009.5
20260903211129 68 300 1.0 3.0 0.00 0.06 0.06 88 1009.6
20260903210624 68 14 0.0 1.0 0.00 0.06 0.06 88 1009.9
20260903210120 68 79 1.0 2.0 0.05 0.06 0.06 88 1010.1
20260903205613 68 206 1.0 2.0 0.05 0.06 0.06 88 1010.4
20260903205112 68 165 1.0 3.0 0.00 0.05 0.05 88 1010.6
20260903204603 68 193 1.0 2.0 0.07 0.05 0.05 87 1010.9
20260903204058 68 196 1.0 1.0 0.07 0.05 0.05 87 1011.1
20260903203554 69 232 0.0 3.0 0.05 0.04 0.04 86 1011.1
20260903203048 69 206 0.0 2.0 0.07 0.03 0.03 84 1011.3
20260903202544 70 200 0.0 0.0 0.12 0.03 0.03 83 1011.6
20260903202039 70 212 0.0 1.0 0.12 0.02 0.02 81 1011.7
20260903201533 71 199 2.0 3.0 0.07 0.01 0.01 79 1011.9
20260903201033 71 192 0.0 3.0 0.00 0.00 0.00 77 1012.1
20260903200528 72 203 0.0 1.0 0.00 0.00 0.00 75 1012.3
20260903200023 73 163 1.0 1.0 0.00 0.00 0.00 73 1012.4
20260903195519 73 110 1.0 2.0 0.00 0.00 0.00 72 1012.1
20260903195014 73 188 0.0 1.0 0.00 0.00 0.00 71 1012.4
20260903194509 73 215 0.0 1.0 0.00 0.00 0.00 71 1012.5
20260903194005 73 152 1.0 3.0 0.00 0.00 0.00 70 1012.6
20260903193501 74 204 0.0 3.0 0.00 0.00 0.00 69 1012.8
20260903192955 74 196 1.0 3.0 0.00 0.00 0.00 69 1012.9
20260903192453 74 166 1.0 3.0 0.00 0.00 0.00 69 1013.0
20260903191947 74 164 3.0 5.0 0.00 0.00 0.00 68 1013.1
20260903191443 74 151 2.0 3.0 0.00 0.00 0.00 68 1012.9
20260903190943 74 164 1.0 2.0 0.00 0.00 0.00 68 1013.2
20260903190437 74 203 0.0 1.0 0.00 0.00 0.00 67 1013.3
20260903185931 74 149 1.0 3.0 0.00 0.00 0.00 67 1013.4
20260903185427 74 133 1.0 3.0 0.00 0.00 0.00 67 1012.9
20260903184921 75 131 1.0 3.0 0.00 0.00 0.00 67 1012.9
20260903184419 75 213 0.0 2.0 0.00 0.00 0.00 67 1012.9
20260903183918 75 179 1.0 2.0 0.00 0.00 0.00 67 1012.9
20260903183413 75 212 0.0 2.0 0.00 0.00 0.00 67 1012.9
20260903182912 75 163 1.0 1.0 0.00 0.00 0.00 67 1013.0
20260903182411 75 166 1.0 2.0 0.00 0.00 0.00 67 1012.9
20260903181907 75 155 1.0 2.0 0.00 0.00 0.00 67 1013.0
20260903181401 75 309 0.0 2.0 0.00 0.00 0.00 67 1013.2
20260903180900 75 210 0.0 1.0 0.00 0.00 0.00 67 1013.1
20260903180355 75 205 1.0 1.0 0.00 0.00 0.00 67 1013.1
20260903175855 75 211 0.0 1.0 0.00 0.00 0.00 66 1013.3
20260903175349 75 190 1.0 2.0 0.00 0.00 0.00 66 1013.4
20260903174843 75 199 1.0 2.0 0.00 0.00 0.00 66 1013.8
20260903174338 75 139 1.0 2.0 0.00 0.00 0.00 65 1013.7
20260903173832 75 209 1.0 1.0 0.00 0.00 0.00 66 1013.9
20260903173328 75 199 0.0 2.0 0.00 0.00 0.00 66 1013.6
20260903172824 75 211 1.0 2.0 0.00 0.00 0.00 66 1013.6
20260903172318 75 184 1.0 5.0 0.00 0.00 0.00 65 1013.7
20260903171814 75 164 3.0 5.0 0.00 0.00 0.00 66 1014.0
20260903171309 75 234 0.0 2.0 0.00 0.00 0.00 66 1014.1
20260903170809 75 198 1.0 2.0 0.00 0.00 0.00 66 1014.1
20260903170303 75 186 0.0 1.0 0.00 0.00 0.00 68 1014.3
20260903165801 75 192 1.0 2.0 0.00 0.00 0.00 67 1014.3
20260903165257 75 133 2.0 3.0 0.00 0.00 0.00 68 1014.5
20260903164751 75 174 1.0 3.0 0.00 0.00 0.00 67 1014.3
20260903164247 75 204 0.0 5.0 0.00 0.00 0.00 68 1014.1
20260903163746 75 154 1.0 2.0 0.00 0.00 0.00 68 1013.9
20260903163243 75 194 1.0 2.0 0.00 0.00 0.00 68 1013.7
20260903162738 75 225 0.0 3.0 0.00 0.00 0.00 69 1013.8
20260903162235 74 197 2.0 3.0 0.00 0.00 0.00 70 1013.8
20260903161730 74 202 0.0 2.0 0.00 0.00 0.00 71 1013.8
20260903161226 73 197 1.0 2.0 0.00 0.00 0.00 72 1013.7
20260903160721 73 62 2.0 3.0 0.00 0.00 0.00 72 1013.8
20260903160220 73 177 2.0 6.0 0.00 0.00 0.00 72 1014.1
20260903155719 72 117 1.0 3.0 0.00 0.00 0.00 74 1013.8
20260903155214 72 201 0.0 1.0 0.00 0.00 0.00 75 1013.3
20260903154709 72 143 1.0 3.0 0.00 0.00 0.00 75 1013.4
20260903154205 71 145 0.0 2.0 0.00 0.00 0.00 75 1013.4
20260903153701 71 172 0.0 2.0 0.00 0.00 0.00 76 1013.4
20260903153157 71 189 0.0 2.0 0.00 0.00 0.00 77 1013.8
20260903152653 70 236 2.0 5.0 0.00 0.00 0.00 77 1013.4
20260903152149 70 206 1.0 3.0 0.00 0.00 0.00 78 1013.5
20260903151648 70 189 0.0 5.0 0.00 0.00 0.00 78 1013.4
20260903151148 69 121 3.0 3.0 0.00 0.00 0.00 79 1013.4
20260903150643 68 101 1.0 3.0 0.00 0.00 0.00 80 1013.4
20260903150138 68 158 1.0 2.0 0.00 0.00 0.00 80 1013.3
20260903145637 68 124 2.0 3.0 0.00 0.00 0.00 81 1013.4
20260903145133 68 127 0.0 2.0 0.00 0.00 0.00 81 1013.1
20260903144632 68 244 2.0 2.0 0.00 0.00 0.00 81 1013.2
20260903144128 67 212 0.0 5.0 0.00 0.00 0.00 82 1013.8
20260903143624 67 221 0.0 2.0 0.00 0.00 0.00 82 1013.7
20260903143120 67 191 0.0 2.0 0.00 0.00 0.00 83 1013.9
20260903142615 66 173 1.0 2.0 0.00 0.00 0.00 83 1013.7
20260903142112 66 49 0.0 3.0 0.00 0.00 0.00 84 1013.8
20260903141607 65 203 0.0 2.0 0.00 0.00 0.00 84 1013.7
20260903141102 65 209 1.0 3.0 0.00 0.00 0.00 84 1013.9
20260903140558 65 186 1.0 2.0 0.00 0.00 0.00 85 1013.9
20260903140053 65 201 2.0 3.0 0.00 0.00 0.00 85 1014.0
20260903135548 64 193 0.0 0.0 0.00 0.00 0.00 86 1013.8
20260903135043 64 216 0.0 1.0 0.00 0.00 0.00 86 1013.9
20260903134543 64 127 0.0 1.0 0.00 0.00 0.00 86 1013.8
20260903134038 63 201 1.0 2.0 0.00 0.00 0.00 86 1013.9
20260903133536 63 140 1.0 2.0 0.00 0.00 0.00 87 1014.0
20260903133031 62 212 0.0 2.0 0.00 0.00 0.00 87 1014.2
20260903132532 62 196 1.0 3.0 0.00 0.00 0.00 87 1014.0
20260903132027 62 219 0.0 1.0 0.00 0.00 0.00 88 1014.0
20260903131522 61 206 1.0 2.0 0.00 0.00 0.00 88 1013.9
20260903131020 61 214 0.0 1.0 0.00 0.00 0.00 89 1013.9
20260903130516 60 98 2.0 5.0 0.00 0.00 0.00 89 1014.1
20260903130015 60 173 2.0 2.0 0.00 0.00 0.00 89 1014.1
20260903125513 60 206 0.0 0.0 0.00 0.00 0.00 90 1014.3
20260903125009 60 309 1.0 1.0 0.00 0.00 0.00 90 1014.1
20260903124503 59 184 0.0 1.0 0.00 0.00 0.00 90 1014.5
20260903124002 59 183 0.0 1.0 0.00 0.00 0.00 90 1014.3
20260903123457 59 162 0.0 1.0 0.00 0.00 0.00 91 1014.3
20260903122955 59 200 1.0 1.0 0.00 0.00 0.00 91 1014.2
20260903122450 59 157 1.0 3.0 0.00 0.00 0.00 91 1014.4
20260903121950 59 193 0.0 0.0 0.00 0.00 0.00 91 1014.4
20260903121444 59 181 0.0 1.0 0.00 0.00 0.00 91 1014.2
20260903120941 59 111 1.0 2.0 0.00 0.00 0.00 91 1013.7
20260903120439 59 68 1.0 1.0 0.00 0.00 0.00 91 1013.8
20260903115938 59 227 0.0 1.0 0.00 0.00 0.00 91 1013.7
20260903115437 59 179 1.0 3.0 0.00 0.00 0.00 91 1013.8
20260903114933 59 211 0.0 1.0 0.00 0.00 0.00 91 1013.6
20260903114428 59 214 0.0 0.0 0.00 0.00 0.00 91 1013.7
20260903113923 59 193 0.0 1.0 0.00 0.00 0.00 90 1013.7
20260903113419 59 219 0.0 1.0 0.00 0.00 0.00 90 1013.7
20260903112914 59 189 0.0 0.0 0.00 0.00 0.00 90 1013.6
20260903112410 59 203 0.0 1.0 0.00 0.00 0.00 90 1013.8
20260903111909 59 226 0.0 0.0 0.00 0.00 0.00 90 1013.8
20260903111409 59 201 0.0 3.0 0.00 0.00 0.00 90 1013.8
20260903110905 60 213 0.0 0.0 0.00 0.00 0.00 90 1013.9
20260903110400 59 214 0.0 2.0 0.00 0.00 0.00 90 1014.0
20260903105855 59 201 0.0 1.0 0.00 0.00 0.00 90 1014.1
20260903105351 60 192 0.0 1.0 0.00 0.00 0.00 90 1014.0
20260903104850 60 210 0.0 0.0 0.00 0.00 0.00 90 1014.2
20260903104345 60 353 1.0 1.0 0.00 0.00 0.00 90 1014.1
20260903103842 60 179 0.0 1.0 0.00 0.00 0.00 90 1014.2
20260903103338 60 193 0.0 1.0 0.00 0.00 0.00 90 1014.2
20260903102833 60 177 1.0 1.0 0.00 0.00 0.00 90 1014.1
20260903102332 60 128 0.0 1.0 0.00 0.00 0.00 90 1014.4
20260903101827 60 146 0.0 2.0 0.00 0.00 0.00 90 1014.3
20260903101322 60 208 0.0 0.0 0.00 0.00 0.00 90 1014.2
20260903100818 60 202 0.0 1.0 0.00 0.00 0.00 90 1014.4
20260903100317 60 209 0.0 0.0 0.00 0.00 0.00 90 1014.3
20260903095815 60 208 0.0 0.0 0.00 0.00 0.00 90 1014.5
20260903095309 60 214 0.0 0.0 0.00 0.00 0.00 90 1014.4
20260903094804 60 197 0.0 1.0 0.00 0.00 0.00 90 1014.4
20260903094259 60 210 0.0 2.0 0.00 0.00 0.00 90 1014.4
20260903093755 60 195 0.0 2.0 0.00 0.00 0.00 90 1014.3
20260903093250 60 180 0.0 0.0 0.00 0.00 0.00 89 1014.4
20260903092744 60 219 0.0 0.0 0.00 0.00 0.00 89 1014.3
20260903092239 60 206 0.0 1.0 0.00 0.00 0.00 89 1014.4
20260903091738 60 347 0.0 0.0 0.00 0.00 0.00 89 1014.2
20260903091232 61 181 0.0 0.0 0.00 0.00 0.00 89 1014.3
20260903090727 61 139 2.0 3.0 0.00 0.00 0.00 89 1014.2
20260903090226 61 195 0.0 1.0 0.00 0.00 0.00 88 1014.1
20260903085720 61 200 0.0 1.0 0.00 0.00 0.00 88 1014.2
20260903085215 61 182 0.0 1.0 0.00 0.00 0.00 88 1014.1
20260903084713 61 213 0.0 2.0 0.00 0.00 0.00 88 1013.9
20260903084208 61 116 0.0 1.0 0.00 0.00 0.00 88 1014.0
20260903083704 61 185 0.0 1.0 0.00 0.00 0.00 89 1013.9
20260903083203 61 205 0.0 0.0 0.00 0.00 0.00 89 1013.9
20260903082657 61 199 0.0 1.0 0.00 0.00 0.00 89 1014.0
20260903082154 61 200 0.0 1.0 0.00 0.00 0.00 89 1013.8
20260903081648 61 195 0.0 2.0 0.00 0.00 0.00 89 1013.9
20260903081144 61 206 0.0 0.0 0.00 0.00 0.00 89 1014.1
20260903080640 61 202 0.0 0.0 0.00 0.00 0.00 88 1013.9
20260903080137 61 213 0.0 1.0 0.00 0.00 0.00 88 1014.2
20260903075631 62 183 0.0 0.0 0.00 0.00 0.00 88 1014.2
20260903075126 62 219 0.0 0.0 0.00 0.00 0.00 88 1014.4
20260903074625 62 214 0.0 0.0 0.00 0.00 0.00 88 1014.3
20260903074120 62 212 0.0 0.0 0.00 0.00 0.00 88 1014.4
20260903073616 62 208 0.0 2.0 0.00 0.00 0.00 88 1014.2
20260903073111 62 199 0.0 0.0 0.00 0.00 0.00 88 1014.1
20260903072606 62 204 0.0 1.0 0.00 0.00 0.00 88 1014.1
20260903072057 62 208 0.0 0.0 0.00 0.00 0.00 88 1014.3
20260903071553 62 208 0.0 0.0 0.00 0.00 0.00 88 1014.5
20260903071048 62 197 0.0 1.0 0.00 0.00 0.00 87 1014.1
20260903070548 62 202 0.0 0.0 0.00 0.00 0.00 87 1014.5
20260903070044 62 215 2.0 2.0 0.00 0.00 0.00 87 1014.2
20260903065543 63 209 0.0 0.0 0.00 0.00 0.00 87 1014.6
20260903065042 63 190 1.0 1.0 0.00 0.00 0.00 87 1014.4
20260903064537 63 200 0.0 0.0 0.00 0.00 0.00 87 1014.3
20260903064032 63 178 1.0 3.0 0.00 0.00 0.00 87 1014.4
20260903063527 63 204 0.0 2.0 0.00 0.00 0.00 86 1014.3
20260903063023 63 179 0.0 2.0 0.00 0.00 0.00 86 1014.4
20260903062518 64 188 0.0 0.0 0.00 0.00 0.00 86 1014.2
20260903062014 64 212 0.0 0.0 0.00 0.00 0.00 85 1014.4
20260903061509 64 202 0.0 0.0 0.00 0.00 0.00 85 1014.5
20260903061003 64 194 0.0 1.0 0.00 0.00 0.00 85 1014.7
20260903060458 64 208 0.0 1.0 0.00 0.00 0.00 84 1014.4
20260903055957 64 216 0.0 1.0 0.00 0.00 0.00 84 1014.7
20260903055454 64 195 1.0 1.0 0.00 0.00 0.00 84 1014.4
20260903054949 65 194 0.0 1.0 0.00 0.00 0.00 84 1014.4
20260903054449 65 209 0.0 0.0 0.00 0.00 0.00 84 1014.5
20260903053945 65 208 0.0 0.0 0.00 0.00 0.00 84 1014.7
20260903053445 65 212 0.0 1.0 0.00 0.00 0.00 83 1014.8
20260903052942 65 213 0.0 1.0 0.00 0.00 0.00 83 1014.6
20260903052437 65 198 1.0 2.0 0.00 0.00 0.00 83 1014.7
20260903051933 65 198 0.0 2.0 0.00 0.00 0.00 84 1014.6
20260903051428 65 202 0.0 2.0 0.00 0.00 0.00 84 1014.5
20260903050924 65 197 0.0 2.0 0.00 0.00 0.00 84 1014.5
20260903050422 65 187 0.0 0.0 0.00 0.00 0.00 83 1014.7
20260903045917 66 206 0.0 0.0 0.00 0.00 0.00 83 1014.7
20260903045412 66 181 0.0 2.0 0.00 0.00 0.00 83 1014.5
20260903044909 66 202 0.0 1.0 0.00 0.00 0.00 83 1014.5
20260903044409 66 208 0.0 0.0 0.00 0.00 0.00 83 1014.6
20260903043906 66 207 0.0 0.0 0.00 0.00 0.00 83 1014.7
20260903043401 66 211 0.0 1.0 0.00 0.00 0.00 83 1014.6
20260903042859 66 292 0.0 1.0 0.00 0.00 0.00 83 1014.7
20260903042354 66 212 0.0 0.0 0.00 0.00 0.00 83 1014.7
20260903041850 66 213 0.0 1.0 0.00 0.00 0.00 83 1014.7
20260903041347 66 216 0.0 0.0 0.00 0.00 0.00 82 1014.9
20260903040842 66 207 0.0 1.0 0.00 0.00 0.00 82 1014.8
20260903040341 66 185 1.0 1.0 0.00 0.00 0.00 82 1014.5